Location: Gradaro
(45.0833°N, 10.8833°E)
Time: 23:10:51
(UTC+00:00)

FENGYUN 1C DEB - Pass Details

Date: 30 June 2021
Orbit: 744 x 851 km, 99.4° (Epoch: 27 July)

Event Time Altitude Azimuth Distance (km) Brightness Sun altitude
Exits shadow 23:01:58 26° 118° (ESE) 1,556 ? -21.7°
Maximum altitude 23:04:23 41° 67° (ENE) 1,162 ? -21.7°
Drops below altitude 10° 23:09:14 10° 359° (N) 2,362 ? -21.8°
Sets 23:11:38 0° 352° (N) 3,279 ? -21.8°
